Simultaneous Nadir Overpasses (SNOs) Predictions

Prediction of SNOs between LANDSAT-8 and NOAA-19 Satellite Orbit:

Table of predicted SNOs for the next 14.0 days since TLE Epoch: 8/15/2020
Index Date (LANDSAT-8) Time (LANDSAT-8) Lat,Lon (LANDSAT-8) SZA (LANDSAT-8 ) Date (NOAA-19) Time (NOAA-19) Lat,Lon (NOAA-19) SZA (NOAA-19 ) Distance(km) Time Diff (sec)
1 08/15/2020 08:03:00 79.89, 86.03 67.03 08/15/2020 08:01:52 79.88, 86.09 67.00 1.28 68
2 08/15/2020 08:52:28 -79.85,-106.59 113.02 08/15/2020 08:52:52 -79.87,-106.52 112.99 2.19 24
3 08/17/2020 14:26:12 79.88, -9.79 67.75 08/17/2020 14:26:08 79.87, -9.75 67.74 1.70 4
4 08/19/2020 19:59:58 -79.89, 86.83 111.51 08/19/2020 19:59:24 -79.89, 86.78 111.52 1.03 34
5 08/19/2020 20:49:24 79.89,-105.55 68.50 08/19/2020 20:50:24 79.86,-105.61 68.50 3.37 60
6 08/22/2020 01:33:43 79.90,-176.56 69.26 08/22/2020 01:32:41 79.89,-176.46 69.24 2.10 62
7 08/22/2020 02:23:11 -79.87, -9.12 110.77 08/22/2020 02:23:39 -79.87, -8.95 110.75 3.25 28
8 08/24/2020 07:56:56 79.88, 87.54 70.02 08/24/2020 07:56:57 79.88, 87.65 70.03 2.13 1
9 08/26/2020 13:30:43 -79.89,-175.86 109.19 08/26/2020 13:30:11 -79.90,-175.74 109.18 2.62 32
10 08/26/2020 14:20:09 79.88, -8.30 70.81 08/26/2020 14:21:13 79.88, -8.27 70.84 0.59 64
11 08/28/2020 19:04:28 79.91, -79.10 71.65 08/28/2020 19:03:30 79.91, -79.17 71.62 1.37 58
